Hourly Data Report for April 24, 2005

TORONTO CITY
ONTARIO

43°40'00.000" N
79°24'00.000" W
112.50 m
6158355
71508
XTO

Download Data

Hourly Data (April 2005)
Hourly Data Report for April 24, 2005
TIME
LST
Temp Definition
°C
Dew Point Definition
°C
Rel Hum Definition
%
Precip. Amount Definition
mm

Wind Dir Definition
10's deg

Wind Spd Definition
km/h
Visibility Definition
km
Stn Press Definition
kPa
Hmdx Definition


Wind Chill Definition


Weather Definition


00:00 4.6 4.4 99   LegendMM LegendMM   98.11     LegendNANA
01:00 4.3 4.1 99   LegendMM LegendMM   97.98     LegendNANA
02:00 4.4 4.2 99   LegendMM LegendMM   97.87     LegendNANA
03:00 5.1 4.7 97   LegendMM LegendMM   97.79     LegendNANA
04:00
05:00
06:00 4.1 3.8 98   LegendMM LegendMM   97.60     LegendNANA
07:00 4.3 3.9 97   LegendMM LegendMM   97.48     LegendNANA
08:00 4.7 3.5 92   LegendMM LegendMM   97.49     LegendNANA
09:00 2.9 2.5 97   LegendMM LegendMM   97.49     LegendNANA
10:00 3.6 3.2 97   LegendMM LegendMM   97.46     LegendNANA
11:00 3.9 2.9 93   LegendMM LegendMM   97.48     LegendNANA
12:00 4.4 3.4 93   LegendMM LegendMM   97.50     LegendNANA
13:00 5.8 3.4 85   LegendMM LegendMM   97.53     LegendNANA
14:00 6.0 2.4 78   LegendMM LegendMM   97.55     LegendNANA
15:00 5.7 2.1 78   LegendMM LegendMM   97.54     LegendNANA
16:00 5.0 2.4 83   LegendMM LegendMM   97.57     LegendNANA
17:00 5.2 2.9 85   LegendMM LegendMM   97.59     LegendNANA
18:00 4.5 3.0 90   LegendMM LegendMM   97.61     LegendNANA
19:00 4.3 3.6 95   LegendMM LegendMM   97.62     LegendNANA
20:00 4.3 3.8 97   LegendMM LegendMM   97.63     LegendNANA
21:00 4.0 3.6 97   LegendMM LegendMM   97.66     LegendNANA
22:00 3.5 2.9 96   LegendMM LegendMM   97.69     LegendNANA
23:00 3.0 2.3 95   LegendMM LegendMM   97.71     LegendNANA

Notes on Data Quality.

Legend

  • E = Estimated
  • M = Missing
  • NA = Not Available*
  • [empty] = Indicates an unobserved value
Date modified: